Grand Forks Air Force Base, ND

10:39 PM CDT on August 26, 2016 (GMT -0500)
Grand Forks International

Weather History for KGFK - October, 2012

Change the Weather History Date:

Sunday, October 14, 2012

  Actual Average Record
Temperature  
Mean Temperature 42 °F 44 °F  
Max Temperature 53 °F 56 °F 83 °F (1988)
Min Temperature 31 °F 33 °F 20 °F (1992)
Degree Days  
Heating Degree Days 23 21  
Month to date heating degree days 311 251  
Since 1 July heating degree days 592 602  
Cooling Degree Days 0 0  
Month to date cooling degree days 0 0  
Year to date cooling degree days 572 378  
Moisture  
Dew Point 35 °F    
Average Humidity 73    
Maximum Humidity 96    
Minimum Humidity 50    
Precipitation  
Precipitation T in 0.07 in 0.67 in (2013)
Month to date precipitation 0.64 0.97  
Year to date precipitation 14.42 18.25  
Snow  
Snow 0.00 in 0.10 in T in (1975)
Month to date snowfall 2.7 0.4  
Since 1 July snowfall 2.7 0.4  
Since 1 September snowfall 2.7 0.4  
Snow Depth 0.00 in    
Sea Level Pressure  
Sea Level Pressure 29.93 in    
Wind  
Wind Speed 8 mph (NNW)    
Max Wind Speed 17 mph    
Max Gust Speed 21 mph    
Visibility 10 miles    
Events      
T = Trace of Precipitation, MM = Missing Value Source: NWS Daily Summary

Daily Weather History Graph

Daily Weather History Graph

Search for Another Location

Airport or City:

Trip Planner

Search our weather history database for the weather conditions in past years. The results will help you decide how hot, cold, wet, or windy it might be!

Date:

Astronomy

Oct. 14, 2012 Rise Set
Actual Time 7:47 AM CDT 6:41 PM CDT
Civil Twilight 7:15 AM CDT 7:12 PM CDT
Nautical Twilight 6:40 AM CDT 7:48 PM CDT
Astronomical Twilight 6:04 AM CDT 8:24 PM CDT
Moon 6:46 AM CDT (10/14) 6:00 PM CDT (10/14)
Length of Visible Light 11h 56m
Length of Day
10h 53m
Waning Crescent, 1% of the Moon is Illuminated
Oct 14
Waning Crescent
Oct 15
New
Oct 21
First Quarter
Oct 29
Full
Nov 6
Last Quarter

Hourly Weather History & Observations

Time (CDT) Temp. Windchill Dew Point Humidity Pressure Visibility Wind Dir Wind Speed Gust Speed Precip Events Conditions
12:53 AM 39.9 °F 32.9 °F 35.1 °F 83% 29.87 in 10.0 mi North 11.5 mph - N/A   Scattered Clouds
1:53 AM 37.0 °F 31.0 °F 34.0 °F 89% 29.88 in 10.0 mi NNW 8.1 mph - N/A   Scattered Clouds
2:53 AM 35.1 °F 29.3 °F 32.0 °F 89% 29.90 in 10.0 mi NW 6.9 mph - N/A   Scattered Clouds
3:53 AM 34.0 °F 26.0 °F 32.0 °F 92% 29.91 in 10.0 mi NW 10.4 mph - N/A   Scattered Clouds
4:53 AM 34.0 °F 26.6 °F 32.0 °F 92% 29.93 in 10.0 mi NW 9.2 mph - N/A   Clear
5:53 AM 33.1 °F 26.9 °F 30.9 °F 92% 29.94 in 10.0 mi NNW 6.9 mph - N/A   Clear
6:53 AM 32.0 °F 24.2 °F 30.0 °F 92% 29.94 in 10.0 mi NW 9.2 mph - N/A   Partly Cloudy
7:53 AM 33.1 °F 26.9 °F 30.9 °F 92% 29.95 in 10.0 mi NNW 6.9 mph - N/A   Partly Cloudy
8:53 AM 36.0 °F 29.6 °F 34.0 °F 93% 29.96 in 10.0 mi NNW 8.1 mph - N/A   Scattered Clouds
9:36 AM 39.2 °F 32.0 °F 35.6 °F 87% 29.95 in 10.0 mi NNW 11.5 mph - N/A   Scattered Clouds
9:48 AM 39.2 °F 31.2 °F 35.6 °F 87% 29.94 in 10.0 mi NNW 13.8 mph - N/A   Mostly Cloudy
9:53 AM 39.0 °F 31.4 °F 36.0 °F 89% 29.97 in 10.0 mi NNW 12.7 mph - N/A   Mostly Cloudy
10:53 AM 41.0 °F 33.9 °F 36.0 °F 82% 29.96 in 10.0 mi NNW 12.7 mph - N/A   Overcast
11:53 AM 42.1 °F 36.6 °F 37.0 °F 82% 29.96 in 10.0 mi North 9.2 mph - N/A   Overcast
12:46 PM 42.8 °F 36.2 °F 37.4 °F 81% 29.93 in 10.0 mi NNW 12.7 mph - N/A   Overcast
12:53 PM 43.0 °F 36.8 °F 37.0 °F 80% 29.95 in 10.0 mi North 11.5 mph - N/A   Overcast
1:53 PM 45.0 °F 39.7 °F 37.0 °F 74% 29.94 in 10.0 mi North 10.4 mph - N/A   Mostly Cloudy
2:05 PM 46.4 °F 41.9 °F 37.4 °F 71% 29.90 in 10.0 mi North 9.2 mph - N/A   Scattered Clouds
2:53 PM 48.2 °F - 37.4 °F 66% 29.90 in 10.0 mi NW 9.2 mph - N/A   Partly Cloudy
3:53 PM 51.1 °F - 37.0 °F 59% 29.91 in 10.0 mi NNW 8.1 mph - N/A   Clear
4:53 PM 53.1 °F - 36.0 °F 52% 29.91 in 10.0 mi NW 8.1 mph - N/A   Partly Cloudy
5:53 PM 53.1 °F - 37.0 °F 55% 29.91 in 10.0 mi North 3.5 mph - N/A   Clear
6:53 PM 48.0 °F - 36.0 °F 63% 29.92 in 10.0 mi Calm Calm - N/A   Partly Cloudy
7:53 PM 43.0 °F 41.3 °F 35.1 °F 74% 29.92 in 10.0 mi ESE 3.5 mph - N/A   Partly Cloudy
8:53 PM 36.0 °F - 32.0 °F 86% 29.94 in 10.0 mi Calm Calm - N/A   Clear
9:53 PM 39.0 °F 34.0 °F 35.1 °F 86% 29.91 in 10.0 mi WSW 6.9 mph - 0.00 in   Mostly Cloudy
10:53 PM 41.0 °F 36.4 °F 36.0 °F 82% 29.91 in 10.0 mi ESE 6.9 mph - N/A   Mostly Cloudy
11:53 PM 37.0 °F 31.6 °F 33.1 °F 86% 29.90 in 10.0 mi SE 6.9 mph - N/A   Clear